Weather in Mbeya

Tanzania     8°54′30″S   33°26′55″E
temp.,
°C
wind,
m/s
gust,
m/s
humid.,
%
clouds,
%
prec.,
mm/h
press.,
hPa
HPBL,
m
10 august, wed
wed1000:00+9se249216 0.0 102181
03:00+9se23955 0.0 102055
06:00+9ese22901 0.0 102033
09:00+15ese23560 0.0 1019450
12:00+21s32390 0.0 10171590
15:00+22sse43340 0.0 10141812
18:00+18sse35526 0.0 1016545
21:00+11se34803 0.0 102074
11 august, thu
thu1100:00+10se347890 0.0 102082
03:00+9se34817 0.0 101886
06:00+8se348565 0.0 101983
09:00+15se36582 0.0 1019497
12:00+22sse23340 0.0 10171651
15:00+22s433437 0.0 10141935
18:00+17sse35555 0.0 1016579
21:00+11se34825 0.0 101980
12 august, fri
fri1200:00+10se348634 0.0 101998
03:00+9se359291 0.0 1018105
06:00+9se348014 0.0 101972
09:00+15se365523 0.0 1019572
12:00+22sse22366 0.0 10171587
15:00+23sse433195 0.0 10141822
18:00+18se34505 0.0 1015695
21:00+11se23800 0.0 101971
13 august, sat
sat1300:00+10se338167 0.0 101960
03:00+10se338762 0.0 101773
06:00+9ese22820 0.0 101845
09:00+16se23505 0.0 1017425
12:00+23s23335 0.0 10151790
15:00+25sse4430100 0.0 10112282
18:00+19sse354812 0.0 1013521
21:00+13se22692 0.0 101641
14 august, sun
sun1400:00+12se22690 0.0 101739
03:00+11se22641 0.0 101527
06:00+11ese22627 0.0 101620
09:00+19se12405 0.0 1016397
12:00+25ssw24265 0.0 10132412
15:00+26s452610 0.0 10102354
18:00+21sse36419 0.0 1011523
21:00+14se33614 0.0 101556